Other Surface Observations
Issued by NWS Tucson, AZ

Home | Current Version | Previous Version | Text Only | Print | Product List | Glossary On
Versions: 1 2 3 4 5 6 7 8 9 10 11 12 13 14 15 16 17 18 19 20 21 22 23 24 25 26 27 28 29 30 31 32 33 34 35 36 37 38 39 40 41 42 43 44 45 46 47 48 49 50
000
SXUS55 KTWC 190715
OSOTWC

WEATHER ROUNDUP FOR SOUTHEAST ARIZONA
NATIONAL WEATHER SERVICE TUCSON AZ
1215 AM MST SUN NOV 19 2017

AZZ504>506-514-190815-
LOCATION       SKY/WX    TMP DP  RH WIND       PRES   REMARKS
TUCSON         PTCLDY    54  26  34 SE7       30.12F
DAVIS-MONTHAN  MOCLDY    50  25  37 SE6       30.10F
CHILDRENS PARK N/A      N/A N/A  30 E2                PIMA CO DEQ
ALVERNON/22ND  N/A       59 N/A N/A S2                PIMA CO DEQ
CHERRY/GLENN   N/A       56 N/A N/A E2                PIMA CO DEQ
TANGERINE      N/A       52 N/A N/A N3                PIMA CO DEQ
CONTL RANCH    N/A       54  25  32 E1                PIMA CO DEQ
GRANT/1ST      N/A       58  26  29 SE2               PIMA CO DEQ
CRAYCROFT/22ND N/A       57  27  32 S5                PIMA CO DEQ
GOLFLINKS/KOLB N/A       58  27  30 S4                PIMA CO DEQ
AJO/12TH       N/A       56  32  40 S3                PIMA CO DEQ
FAIRGROUNDS    N/A       51 N/A N/A SE7               PIMA CO DEQ
SAGUARO        N/A       49  24  37 CALM              *SABINO CYN
SAN CARLOS     N/A       51   6  16 NW2               *SAN CARLOS
GREEN VALLEY   N/A       58  28  32 NE2               PIMA CO DEQ
HORSE CAMP CYN N/A       55  17  22 NE11G14           *ARAVAIPA CYN
RINCON MTNS    N/A       44  22  42 E6G11             *NR MANNING CAMP
$$

AZZ509>511-190815-
LOCATION       SKY/WX    TMP DP  RH WIND       PRES   REMARKS
SAFFORD        CLEAR     53  15  22 S9        30.19S
STRAY HORSE    N/A       40   1  19 CALM              *
TRAIL CABIN    N/A       42  16  35 SE3               *N OF GRANVILLE
BLACK HILLS    NOT AVBL
DRY LAKE       N/A       43  17  34 SE10G13           *NATANES MTNS
NOON CREEK     N/A       54  11  18 SW5G16            *PINALENO MTNS
COLUMBINE      N/A       31  15  52 S3                *PINALENO MTNS
GUTHRIE        N/A       48  12  23 SE4G14            *SW OF GUTHRIE
$$

AZZ502-503-513-190815-
LOCATION       SKY/WX    TMP DP  RH WIND       PRES   REMARKS
NOGALES        CLEAR     51  29  42 CALM      30.14S
SELLS          N/A       60  27  28 E3                *
SASABE         N/A       51  28  40 NE3               *ALTAR VLY
HOPKINS        N/A       50  25  37 E11G21            *SANTA RITA MTNS
CARR CYN       N/A       57  25  29 S4G10             *W OF HEREFORD
$$

AZZ507-508-512-190815-
LOCATION       SKY/WX    TMP DP  RH WIND       PRES   REMARKS
SIERRA VISTA   CLEAR     51  25  36 E3        30.20S
DOUGLAS        CLEAR     59  23  25 E8        30.18S
EMPIRE MTNS    NOT AVBL
MULESHOE RANCH N/A       58  18  21 NE8G17            *PRESERVE
HEADQUARTERS   N/A       52  17  25 NE9G21            *CHIRICAHUA MTNS
$$

.............................NOTES.............................
THIS IS AN AUTOMATED COLLECTIVE WITH MINIMAL QUALITY CONTROL.
PIMA CO DEQ SITES HAVE NONSTANDARD WIND SENSOR HEIGHTS.
PIMA CO DEQ SITES DO NOT REPORT WIND GUSTS.
* INDICATES WIND SENSORS LOCATED AT 20 FEET INSTEAD OF 33 FEET.
..............................KEY..............................
SKY/WX - SKY CONDITION/WEATHER
TMP    - TEMPERATURE IN FAHRENHEIT
DP     - DEWPOINT IN FAHRENHEIT
RH     - RELATIVE HUMIDITY IN PERCENT
WIND   - DIRECTION AND SPEED IN MILES PER HOUR (MPH)
VRB    - VARIABLE WIND DIRECTION
PRES   - MEAN SEA LEVEL PRESSURE IN INCHES OF MERCURY
         F - FALLING PRESSURE   R - RISING PRESSURE
         S - STEADY PRESSURE
VSB    - VISIBILITY IN MILES
HX     - HEAT INDEX IN FAHRENHEIT
WCI    - WIND CHILL INDEX IN FAHRENHEIT
N/A    - NOT AVAILABLE
AFB    - AIR FORCE BASE
         DAVIS-MONTHAN IS DAVIS-MONTHAN AIR FORCE BASE
CYN    - CANYON
MTNS   - MOUNTAINS
NCA    - NATIONAL CONSERVATION AREA
NR     - NEAR
VLY    - VALLEY
CONTL  - CONTINENTAL
PIMA CO DEQ - PIMA COUNTY DEPT OF ENVIRONMENTAL QUALITY



USA.gov is the U.S. government's official web portal to all federal, state and local government web resources and services.